| time (UTC) | temp F | wind direction | speed knots | gust knots | rain 1hr in | rain 24hr in | rain mn in | humidity % | barometer mb |
| 20260504204544 | 77 | 227 | 2.6 | 7.0 | 0.00 | 0.00 | 0.00 | 50 | 1010.8 |
| 20260504203543 | 77 | 279 | 2.6 | 6.1 | 0.00 | 0.00 | 0.00 | 50 | 1010.8 |
| 20260504202601 | 76 | 256 | 2.6 | 6.1 | 0.00 | 0.00 | 0.00 | 51 | 1010.9 |
| 20260504201540 | 76 | 248 | 1.7 | 6.1 | 0.00 | 0.00 | 0.00 | 49 | 1011.0 |
| 20260504200537 | 76 | 264 | 0.9 | 5.2 | 0.00 | 0.00 | 0.00 | 49 | 1011.0 |
| 20260504195536 | 76 | 295 | 1.7 | 5.2 | 0.00 | 0.00 | 0.00 | 50 | 1011.1 |
| 20260504194534 | 75 | 253 | 1.7 | 5.2 | 0.00 | 0.00 | 0.00 | 51 | 1011.0 |
| 20260504193533 | 76 | 267 | 1.7 | 3.5 | 0.00 | 0.00 | 0.00 | 50 | 1011.1 |
| 20260504192531 | 76 | 217 | 1.7 | 5.2 | 0.00 | 0.00 | 0.00 | 51 | 1011.2 |
| 20260504191557 | 76 | 214 | 1.7 | 3.5 | 0.00 | 0.00 | 0.00 | 51 | 1011.2 |
| 20260504190527 | 76 | 238 | 2.6 | 6.1 | 0.00 | 0.00 | 0.00 | 52 | 1011.4 |
| 20260504185526 | 75 | 224 | 2.6 | 5.2 | 0.00 | 0.00 | 0.00 | 53 | 1011.5 |
| 20260504184544 | 74 | 248 | 1.7 | 6.1 | 0.00 | 0.00 | 0.00 | 54 | 1011.5 |
| 20260504183522 | 74 | 259 | 1.7 | 5.2 | 0.00 | 0.00 | 0.00 | 55 | 1011.7 |
| 20260504182541 | 72 | 218 | 3.5 | 6.1 | 0.00 | 0.00 | 0.00 | 57 | 1011.8 |
| 20260504181539 | 71 | 239 | 1.7 | 3.5 | 0.00 | 0.00 | 0.00 | 56 | 1011.7 |
| 20260504180517 | 71 | 244 | 0.9 | 5.2 | 0.00 | 0.00 | 0.00 | 58 | 1011.7 |
| 20260504174614 | 70 | 273 | 0.9 | 2.6 | 0.00 | 0.00 | 0.00 | 56 | 1011.7 |
| 20260504173613 | 70 | 275 | 1.7 | 5.2 | 0.00 | 0.00 | 0.00 | 57 | 1011.6 |
| 20260504172631 | 69 | 243 | 3.5 | 7.8 | 0.00 | 0.00 | 0.00 | 59 | 1011.6 |
| 20260504171630 | 68 | 293 | 0.9 | 2.6 | 0.00 | 0.00 | 0.00 | 59 | 1011.5 |
| 20260504170608 | 68 | 249 | 1.7 | 2.6 | 0.00 | 0.00 | 0.00 | 58 | 1011.5 |
| 20260504150547 | 76 | 235 | 0.9 | 2.6 | 0.00 | 0.00 | 0.00 | 49 | 1010.8 |
| 20260504140556 | 55 | 0.0 | 0.0 | 0.00 | 0.00 | 0.00 | 79 | 1010.4 | |
| 20260504130527 | 52 | 0.0 | 0.0 | 0.00 | 0.00 | 0.00 | 80 | 1009.8 | |
| 20260504110606 | 54 | 0.0 | 0.0 | 0.00 | 0.00 | 0.00 | 73 | 1009.7 | |
| 20260504100558 | 55 | 0.0 | 0.0 | 0.00 | 0.00 | 0.00 | 70 | 1009.4 | |
| 20260504081615 | 59 | 0.0 | 0.0 | 0.00 | 0.00 | 0.00 | 60 | 1009.6 | |
| 20260504080634 | 60 | 0.0 | 0.0 | 0.00 | 0.00 | 0.00 | 58 | 1009.5 | |
| 20260504050602 | 70 | 9 | 0.9 | 2.6 | 0.00 | 0.00 | 0.00 | 41 | 1009.5 |
| 20260504045542 | 70 | 16 | 0.9 | 1.7 | 0.00 | 0.00 | 0.00 | 40 | 1009.5 |
| 20260504044538 | 70 | 357 | 1.7 | 2.6 | 0.00 | 0.00 | 0.00 | 39 | 1009.5 |
| 20260504043537 | 70 | 4 | 0.9 | 1.7 | 0.00 | 0.00 | 0.00 | 39 | 1009.4 |
| 20260504042535 | 70 | 9 | 0.9 | 1.7 | 0.00 | 0.00 | 0.00 | 38 | 1009.4 |
| 20260504041534 | 71 | 8 | 0.9 | 3.5 | 0.00 | 0.00 | 0.00 | 39 | 1009.3 |
| 20260504040532 | 71 | 0 | 1.7 | 2.6 | 0.00 | 0.00 | 0.00 | 39 | 1009.4 |
| 20260504035530 | 71 | 319 | 0.9 | 1.7 | 0.00 | 0.00 | 0.00 | 38 | 1009.4 |
| 20260504034528 | 71 | 330 | 0.9 | 3.5 | 0.00 | 0.00 | 0.00 | 39 | 1009.2 |
| 20260504033527 | 71 | 7 | 1.7 | 3.5 | 0.00 | 0.00 | 0.00 | 39 | 1009.2 |
| 20260504032545 | 71 | 9 | 1.7 | 3.5 | 0.00 | 0.00 | 0.00 | 40 | 1009.2 |
| 20260504031543 | 72 | 351 | 1.7 | 7.0 | 0.00 | 0.00 | 0.00 | 40 | 1009.2 |
| 20260504030521 | 72 | 347 | 1.7 | 3.5 | 0.00 | 0.00 | 0.00 | 40 | 1009.2 |
| 20260504025520 | 73 | 350 | 1.7 | 3.5 | 0.00 | 0.00 | 0.00 | 39 | 1009.2 |
| 20260504024558 | 74 | 8 | 1.7 | 3.5 | 0.00 | 0.00 | 0.00 | 39 | 1009.2 |
| 20260504023516 | 74 | 344 | 2.6 | 7.0 | 0.00 | 0.00 | 0.00 | 40 | 1009.0 |
| 20260504022614 | 75 | 1 | 3.5 | 6.1 | 0.00 | 0.00 | 0.00 | 41 | 1009.0 |
| 20260504021615 | 75 | 4 | 1.7 | 3.5 | 0.00 | 0.00 | 0.00 | 41 | 1009.1 |
| 20260504020611 | 75 | 4 | 2.6 | 5.2 | 0.00 | 0.00 | 0.00 | 41 | 1009.1 |
| 20260504015609 | 76 | 12 | 3.5 | 7.0 | 0.00 | 0.00 | 0.00 | 40 | 1009.2 |
| 20260504014607 | 76 | 1 | 1.7 | 3.5 | 0.00 | 0.00 | 0.00 | 39 | 1009.2 |
| 20260504013626 | 76 | 348 | 2.6 | 5.2 | 0.00 | 0.00 | 0.00 | 38 | 1009.3 |
| 20260504012604 | 76 | 353 | 3.5 | 7.0 | 0.00 | 0.00 | 0.00 | 38 | 1009.3 |
| 20260504011602 | 76 | 342 | 2.6 | 6.1 | 0.00 | 0.00 | 0.00 | 38 | 1009.4 |
| 20260504010620 | 77 | 358 | 3.5 | 6.1 | 0.00 | 0.00 | 0.00 | 38 | 1009.4 |
| 20260504005558 | 77 | 348 | 1.7 | 5.2 | 0.00 | 0.00 | 0.00 | 38 | 1009.5 |
| 20260504004556 | 77 | 357 | 2.6 | 7.0 | 0.00 | 0.00 | 0.00 | 38 | 1009.6 |
| 20260504003555 | 77 | 349 | 2.6 | 6.1 | 0.00 | 0.00 | 0.00 | 38 | 1009.7 |
| 20260504002613 | 77 | 360 | 3.5 | 6.1 | 0.00 | 0.00 | 0.00 | 38 | 1009.8 |
| 20260504001551 | 77 | 352 | 2.6 | 7.0 | 0.00 | 0.00 | 0.00 | 39 | 1009.9 |
| 20260504000550 | 77 | 351 | 4.3 | 7.0 | 0.00 | 0.00 | 0.00 | 38 | 1010.0 |
| 20260503235548 | 77 | 358 | 4.3 | 8.7 | 0.00 | 0.00 | 0.00 | 38 | 1010.0 |
| 20260503234546 | 77 | 2 | 5.2 | 11.3 | 0.00 | 0.00 | 0.00 | 38 | 1010.2 |
| 20260503233544 | 77 | 355 | 3.5 | 8.7 | 0.00 | 0.00 | 0.00 | 37 | 1010.4 |
| 20260503232542 | 77 | 346 | 2.6 | 6.1 | 0.00 | 0.00 | 0.00 | 37 | 1010.5 |
| 20260503231546 | 78 | 19 | 3.5 | 7.0 | 0.00 | 0.00 | 0.00 | 35 | 1010.6 |
| 20260503230539 | 78 | 340 | 2.6 | 6.1 | 0.00 | 0.00 | 0.00 | 36 | 1010.7 |
| 20260503225538 | 77 | 8 | 3.5 | 6.1 | 0.00 | 0.00 | 0.00 | 37 | 1010.8 |
| 20260503224535 | 77 | 12 | 3.5 | 7.8 | 0.00 | 0.00 | 0.00 | 38 | 1011.0 |
| 20260503223533 | 77 | 35 | 2.6 | 7.0 | 0.00 | 0.00 | 0.00 | 41 | 1011.0 |
| 20260503222532 | 77 | 6 | 2.6 | 5.2 | 0.00 | 0.00 | 0.00 | 41 | 1011.1 |
| 20260503221530 | 76 | 7 | 2.6 | 6.1 | 0.00 | 0.00 | 0.00 | 43 | 1011.2 |
| 20260503220528 | 76 | 7 | 2.6 | 5.2 | 0.00 | 0.00 | 0.00 | 43 | 1011.5 |
| 20260503215526 | 76 | 335 | 1.7 | 6.1 | 0.00 | 0.00 | 0.00 | 43 | 1011.5 |
| 20260503214545 | 76 | 10 | 2.6 | 6.1 | 0.00 | 0.00 | 0.00 | 43 | 1011.7 |
| 20260503213523 | 75 | 355 | 3.5 | 6.1 | 0.00 | 0.00 | 0.00 | 43 | 1011.6 |
| 20260503212541 | 75 | 349 | 3.5 | 6.1 | 0.00 | 0.00 | 0.00 | 45 | 1011.8 |
| 20260503211519 | 75 | 354 | 3.5 | 7.8 | 0.00 | 0.00 | 0.00 | 44 | 1011.9 |
| 20260503210518 | 74 | 5 | 3.5 | 7.8 | 0.00 | 0.00 | 0.00 | 47 | 1012.1 |
| 20260503205516 | 74 | 359 | 2.6 | 7.0 | 0.00 | 0.00 | 0.00 | 46 | 1012.1 |